GFSFLT2_con_mucape_000.txt.gz
CAPE
2160 2035 1704 1503 1157 748 801 930 1049 1320 1467 1416 1358 1263 680 457 470 526 489 356 268 427 482 604 669 727 681 590 475 472 494 496
1738 1890 2169 1795 1373 770 605 873 976 1100 1301 1258 1431 898 365 264 163 51 123 190 147 171 242 228 302 355 370 305 207 202 247 334
2101 2178 2218 1818 1594 832 1142 1077 1106 982 673 805 696 1195 574 420 182 50 96 0 0 0 0 0 0 25 83 137 58 54 25 137
687 1340 1809 1804 1242 622 1922 1663 1313 1246 1275 981 891 677 423 262 69 15 0 0 0 0 7 0 0 0 16 13 5 2 0 35
72 758 1375 1835 1635 1559 1617 1417 1319 1107 953 767 406 226 149 148 138 158 55 0 0 0 16 53 0 11 25 8 39 0 0 0
6 483 853 926 798 709 880 582 470 348 313 381 417 270 116 82 35 0 0 3 2 2 0 0 0 0 8 5 40 5 2 0
0 74 417 701 443 332 157 40 0 0 0 0 48 64 80 32 0 0 1 2 0 0 0 0 0 0 0 0 0 6 11 8
0 0 44 38 254 107 1 0 0 0 0 0 0 1 0 0 0 0 0 0 0 1 16 20 11 1 0 1 1 0 0 5
0 0 0 0 0 0 0 0 0 0 0 0 0 0 0 0 0 0 0 0 0 0 0 0 0 9 11 35 36 8 29 62
0 0 0 0 0 0 0 0 0 0 0 0 0 0 0 0 0 0 0 0 0 0 0 0 0 0 0 0 0 0 41 81
0 0 0 0 0 0 0 0 0 0 0 0 0 0 0 0 0 0 0 0 0 0 0 0 0 0 0 0 0 0 0 88
0 0 0 0 0 0 0 0 0 0 0 0 0 0 0 0 0 0 0 0 0 0 0 0 0 0 0 0 0 0 0 1
0 0 0 0 0 0 0 0 0 0 0 0 0 0 0 0 0 0 0 0 0 0 0 0 0 0 0 0 0 0 0 0
0 0 0 0 0 0 0 0 0 0 0 0 0 0 0 0 0 0 0 0 0 0 2 0 0 0 0 0 0 0 0 0
0 0 0 0 0 0 0 0 0 0 0 0 0 0 0 0 0 0 0 0 0 0 0 1 0 5 0 0 0 0 0 0
0 0 0 0 0 0 0 0 0 0 0 0 0 10 12 18 26 40 38 23 0 4 6 34 23 0 13 13 6 1 0 0
0 0 0 0 0 0 0 0 0 0 0 0 0 0 0 0 0 0 29 32 30 17 12 10 14 25 27 35 24 14 5 0
0 0 0 0 0 0 0 0 0 0 0 0 0 0 0 0 0 0 0 0 0 0 0 0 0 0 0 6 16 6 4 0
1 0 0 0 0 0 0 0 0 0 0 0 0 0 0 0 0 0 0 0 0 0 0 0 0 0 0 0 0 0 2 0
1 0 0 0 0 0 0 0 0 0 0 1 0 0 0 0 0 0 0 0 0 0 0 0 0 0 0 0 5 8 11 15

GFSFLT2_con_mucape_003.txt.gz
CAPE
1893 1615 1487 1284 950 739 809 868 1206 1522 1549 1320 1135 718 702 673 561 533 460 432 672 492 403 404 610 532 559 509 643 925 974 934
2180 1912 1686 1376 1068 509 760 738 919 1343 1477 1476 611 372 333 279 252 209 338 116 199 231 242 247 229 251 242 178 197 158 242 170
1722 1912 1822 1539 1258 651 1224 954 920 945 1011 1113 697 508 251 183 86 94 22 135 10 9 38 53 52 1 17 7 6 0 21 50
522 753 1338 1346 1148 874 1374 1148 951 934 791 610 580 533 156 58 9 21 0 0 0 0 0 0 0 0 0 0 0 8 3 0
89 725 959 1159 855 1096 1267 939 987 636 412 388 282 68 0 45 15 18 0 0 1 0 0 0 52 56 2 0 0 31 27 22
0 212 373 619 434 811 793 841 481 390 238 260 74 35 0 0 0 0 0 0 0 1 0 0 0 0 0 0 0 9 19 0
0 13 173 244 194 245 268 194 19 0 0 0 0 9 3 1 0 0 0 0 0 0 2 1 0 0 0 0 0 2 2 0
0 0 0 0 0 0 0 0 0 0 0 0 0 0 0 0 0 0 0 0 0 0 0 0 0 1 3 4 0 2 0 0
0 0 0 0 0 0 0 0 0 0 0 0 0 0 0 0 0 0 0 0 0 0 0 0 0 0 0 0 0 0 0 3
0 0 0 0 0 0 0 0 0 0 0 0 0 0 0 0 0 0 0 0 0 0 0 0 0 0 0 0 0 0 0 0
0 0 0 0 0 0 0 0 0 0 0 0 0 0 0 0 0 0 0 0 0 0 0 0 0 0 0 0 0 0 0 0
0 0 0 0 0 0 0 0 0 0 0 0 0 0 0 0 0 0 0 0 0 0 0 0 0 0 0 0 0 0 0 0
0 0 0 0 0 0 0 0 0 0 0 0 0 0 0 0 0 0 0 0 0 0 0 0 0 0 0 0 0 0 0 0
0 0 0 0 0 0 0 0 0 0 0 0 0 0 0 0 0 0 0 0 0 0 0 0 0 0 0 0 0 0 0 0
0 0 0 0 0 0 0 0 0 0 0 0 0 0 0 0 0 0 0 0 0 0 0 0 0 0 0 0 0 0 0 0
0 0 0 0 0 0 0 0 0 0 0 0 0 0 0 0 0 3 6 2 0 0 0 0 0 0 0 0 0 0 0 0
0 0 0 0 0 0 0 0 0 0 0 0 0 0 0 0 0 7 6 4 0 0 0 0 0 0 0 0 0 0 0 0
0 0 0 0 0 0 0 0 0 0 0 0 0 0 0 0 0 0 1 0 0 0 1 0 0 0 0 0 0 0 0 0
0 0 0 0 0 2 3 8 11 12 13 7 2 0 4 0 0 0 0 0 0 0 0 0 0 0 0 0 0 0 0 0
0 0 2 0 0 0 1 3 3 17 33 21 27 8 0 0 0 0 0 0 0 0 0 0 0 0 0 0 0 0 0 1

GFSFLT2_con_mucape_006.txt.gz
CAPE
1476 1571 1339 1140 943 841 795 1117 1448 1570 1501 1356 1172 1095 1166 1057 897 932 929 904 759 368 309 185 234 512 331 292 444 597 829 711
1744 1666 1543 1397 720 612 664 770 1065 1405 1246 943 669 641 636 512 451 636 597 511 475 375 442 544 585 482 353 317 344 342 337 342
1907 1882 1647 1445 1070 927 970 849 931 1082 1327 806 486 334 143 156 65 219 267 215 83 206 340 357 313 263 200 186 71 13 27 19
1481 1737 1649 1426 1121 972 1117 932 868 783 726 907 764 527 145 83 3 38 0 0 0 0 0 12 39 17 2 0 0 0 9 0
270 485 913 1030 713 818 1115 860 858 858 656 506 538 427 115 4 0 0 0 0 0 0 0 0 0 0 6 7 1 0 0 0
138 236 720 620 530 1150 1125 773 809 506 260 177 0 0 0 11 0 0 0 0 0 0 0 0 0 0 0 0 0 0 0 7
0 10 75 202 131 558 593 621 496 140 14 0 0 0 0 0 0 0 0 0 0 0 0 2 3 9 3 2 0 0 0 4
0 0 1 8 0 0 4 14 8 0 0 0 0 0 0 0 0 0 0 0 0 0 0 0 0 0 0 1 5 2 1 2
0 0 0 0 0 0 0 0 0 0 0 0 0 0 0 0 0 0 0 0 0 0 0 0 0 0 0 0 0 0 0 0
0 0 0 0 0 0 0 0 0 0 0 0 0 0 0 0 0 0 0 0 0 0 0 0 0 0 0 0 0 0 0 0
0 0 0 0 0 0 0 0 0 0 0 0 0 0 0 0 0 0 0 0 0 0 0 0 0 0 0 0 0 0 0 0
0 0 0 0 0 0 0 0 0 0 0 0 0 0 0 0 0 0 0 0 0 0 0 0 0 0 0 0 0 0 0 0
0 0 0 0 0 0 0 0 0 0 0 0 0 0 0 0 0 0 0 0 0 0 0 0 0 0 0 0 0 0 0 0
0 0 0 0 0 0 0 0 0 0 0 0 0 0 0 0 0 0 0 0 0 0 0 0 0 0 0 0 0 0 0 0
0 0 0 0 0 0 0 0 0 0 0 0 0 0 0 0 0 0 0 0 0 0 0 0 0 0 0 0 0 0 0 0
0 0 0 0 0 0 0 0 0 0 0 0 0 0 0 0 0 0 0 0 0 0 0 0 0 0 0 0 0 0 0 0
0 0 0 0 0 0 0 0 0 0 0 0 0 0 0 0 0 0 0 0 0 0 0 0 0 0 0 0 0 0 0 0
0 0 0 0 0 0 0 0 0 0 0 0 11 18 16 0 0 0 0 0 1 0 0 0 0 0 0 0 0 0 0 0
0 0 0 4 10 0 0 0 0 0 0 0 1 31 38 3 2 9 1 0 0 0 0 0 0 1 0 0 0 0 0 0
2 1 2 6 0 0 0 0 0 0 0 0 0 6 35 7 0 0 0 0 0 0 0 0 0 0 0 0 0 0 0 0

GFSFLT2_con_mucape_009.txt.gz
CAPE
1213 1169 1076 1145 978 936 1071 1368 1517 1554 1378 1428 1346 1315 1374 1305 1257 1364 1400 1332 1147 545 704 387 322 394 398 346 351 469 469 357
1399 1311 1217 914 487 634 624 1000 1286 1284 1084 968 722 753 752 715 576 838 639 614 475 407 401 441 490 466 341 216 133 108 139 163
1464 1435 1344 1133 691 493 611 746 961 1185 1071 691 463 346 200 171 198 324 364 164 142 224 305 348 316 289 239 208 161 115 38 2
1590 1558 1466 1225 817 681 777 731 643 626 975 606 616 441 191 106 26 71 10 0 0 0 0 22 71 40 10 0 0 0 0 2
1637 1601 1429 1116 937 729 919 764 718 668 529 576 523 601 152 31 0 0 0 0 0 0 0 0 0 0 0 0 1 1 0 0
155 247 569 579 534 520 938 845 680 675 554 335 265 103 0 0 0 0 0 0 0 0 0 0 0 0 0 0 0 0 0 0
14 65 330 107 191 731 1046 719 697 587 179 45 0 0 0 0 0 0 0 0 0 0 0 0 0 0 0 0 0 0 0 0
0 0 10 26 3 59 167 335 362 320 24 0 0 0 0 0 0 0 0 0 0 0 0 0 0 0 0 0 0 0 0 0
0 0 0 0 0 0 0 0 0 0 0 0 0 0 0 0 0 0 0 0 0 0 0 0 0 0 0 0 0 0 0 0
0 0 0 0 0 0 0 0 0 0 0 0 0 0 0 0 0 0 0 0 0 0 0 0 0 0 0 0 0 0 0 0
0 0 0 0 0 0 0 0 0 0 0 0 0 0 0 0 0 0 0 0 0 0 0 0 0 0 0 0 0 0 0 0
0 0 0 0 0 0 0 0 0 0 0 0 0 0 0 0 0 0 0 0 0 0 0 0 0 0 0 0 0 0 0 0
0 0 0 0 0 0 0 0 0 0 0 0 0 0 0 0 0 0 0 0 0 0 0 0 0 0 0 0 0 0 0 0
0 0 0 0 0 0 0 0 0 0 0 0 0 0 0 0 0 0 0 0 0 0 0 0 0 0 0 0 0 0 0 0
0 0 0 0 0 0 0 0 0 0 0 0 0 0 0 0 0 0 0 0 0 0 0 0 0 0 0 0 0 0 0 0
0 0 0 0 0 0 0 0 0 0 0 0 0 0 0 0 0 0 6 1 0 2 1 0 0 0 0 0 0 0 0 0
0 0 0 0 0 0 0 0 0 0 0 0 0 0 0 0 0 15 11 2 1 2 0 0 0 0 0 0 0 0 0 0
0 0 0 0 0 0 0 0 0 0 0 0 0 0 0 0 0 8 21 3 0 0 0 1 0 0 0 0 0 0 0 0
0 0 0 0 1 5 1 0 0 0 0 0 0 0 0 0 0 0 1 11 28 14 0 1 1 0 0 0 0 0 0 0
0 0 0 0 0 0 0 0 0 0 0 0 0 0 0 0 0 0 21 27 8 18 1 0 0 0 0 0 0 0 0 0

GFSFLT2_con_mucape_012.txt.gz
CAPE
614 664 771 881 841 874 981 1233 1344 1275 1166 1192 1143 1215 1235 1120 1129 1154 1007 1020 974 807 704 834 702 576 467 384 348 338 307 230
1015 903 805 501 420 533 596 892 1125 1110 882 688 527 520 533 480 360 638 513 320 285 308 377 408 407 387 316 249 184 92 34 9
1157 1047 969 679 342 257 432 615 837 1012 795 507 299 209 80 61 150 285 228 124 73 61 95 203 286 288 211 151 157 109 80 31
1273 1190 1121 831 506 367 324 424 437 504 755 414 265 299 108 7 0 5 1 0 0 0 0 0 0 8 12 1 0 0 0 0
1373 1242 1214 973 771 344 384 488 456 432 355 400 303 383 212 14 0 0 0 0 0 0 0 0 0 0 0 0 0 0 0 0
1503 1256 1208 984 731 586 365 579 483 432 384 326 237 176 57 0 0 0 0 0 0 0 0 0 0 0 0 0 0 0 0 0
803 398 289 228 273 283 285 599 667 467 438 239 62 16 0 0 0 0 0 0 0 0 0 0 0 0 0 0 0 0 0 0
28 0 59 4 3 106 327 594 391 344 420 190 0 0 0 0 0 0 0 0 0 0 0 0 0 0 0 0 0 0 0 0
0 0 0 0 0 0 0 0 0 9 11 0 0 0 0 0 0 0 0 0 0 0 0 0 0 0 0 0 0 0 0 0
0 0 0 0 0 0 0 0 0 0 0 0 0 0 0 0 0 0 0 0 0 0 0 0 0 0 0 0 0 0 0 0
0 0 0 0 0 0 0 0 0 0 0 0 0 0 0 0 0 0 0 0 0 0 0 0 0 0 0 0 0 0 0 0
0 0 0 0 0 0 0 0 0 0 0 0 0 0 0 0 0 0 0 0 0 0 0 0 0 0 0 0 0 0 0 0
0 0 0 0 0 0 0 0 0 0 0 0 0 0 0 0 0 0 0 0 0 0 0 0 0 0 0 0 0 0 0 0
0 0 0 0 0 0 0 0 0 0 0 0 0 0 0 0 0 0 0 0 0 0 0 0 0 0 0 0 0 0 0 0
0 0 0 0 0 0 0 0 0 0 0 0 0 0 0 0 0 0 0 0 0 0 0 0 0 0 0 0 0 0 0 0
0 0 0 0 0 0 0 0 0 2 1 0 0 0 0 0 0 0 0 0 0 5 0 4 0 0 0 0 0 0 0 0
0 0 0 0 0 0 1 4 11 9 0 0 0 0 0 0 0 0 0 0 0 4 4 14 3 3 3 0 0 0 0 0
0 0 0 0 1 7 13 9 0 0 0 0 0 0 0 0 0 0 0 0 0 0 1 11 6 2 1 0 0 0 0 0
0 0 2 7 13 21 7 0 0 0 0 0 0 0 0 0 0 0 0 0 0 0 0 25 35 9 5 0 0 0 0 0
1 3 1 1 0 0 0 0 0 0 0 0 0 0 0 0 0 0 0 0 2 7 20 43 26 1 0 0 0 0 0 0

GFSFLT2_con_mucape_015.txt.gz
CAPE
529 638 675 698 630 656 838 1001 1078 964 994 918 952 979 899 904 992 912 856 616 597 534 433 482 515 438 377 316 251 203 321 192
597 769 680 644 621 338 483 744 887 780 694 443 330 293 285 160 170 392 360 300 252 177 153 234 249 252 226 157 137 197 164 89
743 776 634 331 169 256 335 496 708 763 580 280 247 363 191 136 69 138 96 52 16 1 0 0 18 65 76 65 65 79 48 19
873 889 813 518 198 249 423 457 725 861 948 645 375 251 144 8 1 0 0 0 0 0 0 0 0 0 0 0 0 0 0 0
1068 1007 972 717 457 246 325 430 557 565 660 649 476 357 219 91 25 1 0 0 0 0 0 0 0 0 0 0 0 0 0 0
1455 1139 1008 966 812 703 376 522 564 633 530 373 431 329 170 43 0 0 0 0 0 0 0 0 0 0 0 0 0 0 0 0
1611 1353 925 566 194 288 442 559 732 714 575 419 268 216 126 0 0 0 0 0 0 0 0 0 0 0 0 0 0 0 0 0
1413 904 57 14 0 81 276 378 516 459 400 363 266 99 53 0 0 0 0 0 0 0 0 0 0 0 0 0 0 0 0 0
1025 92 0 0 0 0 0 1 2 3 47 93 61 23 11 0 0 9 20 0 0 0 0 0 0 0 0 0 0 0 0 0
481 0 0 0 0 0 0 0 0 0 0 0 0 0 2 19 24 45 48 39 20 0 0 0 0 0 0 0 0 0 0 0
164 0 0 0 0 0 0 0 0 0 0 0 0 0 0 0 3 4 6 0 0 0 0 0 0 0 0 0 0 0 0 0
1 0 0 0 0 0 0 0 0 0 0 0 0 0 0 0 0 0 0 0 0 0 0 0 0 0 0 0 0 0 0 0
0 0 0 0 0 0 0 0 0 0 0 0 0 0 0 0 0 0 0 0 0 0 0 0 0 0 0 0 0 0 0 0
0 0 0 0 0 0 0 0 0 0 0 0 0 0 0 0 0 0 0 0 0 0 0 0 0 0 0 0 0 0 0 0
0 0 0 0 0 0 0 0 2 4 2 1 0 0 0 0 0 0 0 0 0 0 0 0 0 0 0 0 0 0 0 0
0 0 0 0 0 0 0 1 1 0 0 0 0 0 0 0 0 0 0 0 0 0 0 0 0 0 0 0 0 0 0 0
0 0 0 0 0 0 2 1 0 0 3 0 0 0 0 0 0 0 0 0 0 0 0 0 0 0 1 12 6 2 2 0
0 0 0 0 0 2 3 11 15 1 0 0 0 0 0 0 0 0 0 0 0 0 0 0 0 0 0 2 11 36 12 9
6 7 14 16 19 11 12 9 1 0 0 0 0 0 0 0 0 0 0 0 0 0 0 0 0 3 7 7 9 16 0 5
20 12 17 13 9 2 0 0 0 0 0 0 0 0 0 0 0 0 0 0 0 0 0 4 4 8 20 0 0 0 0 0

GFSFLT2_con_mucape_021.txt.gz
CAPE
192 312 368 522 522 654 800 814 662 630 613 686 673 662 654 716 657 556 487 423 379 298 214 159 84 72 69 79 85 147 485 508
427 461 420 611 587 335 551 680 596 514 372 274 294 390 267 145 424 249 177 118 63 23 1 0 0 0 0 0 0 2 297 266
628 518 408 250 104 225 167 557 640 529 469 230 506 700 506 411 58 19 5 0 0 0 0 0 0 0 0 0 0 0 15 33
923 1161 772 298 0 215 260 142 543 572 677 708 518 637 655 140 76 19 0 0 0 0 0 0 0 0 1 0 0 0 0 0
812 1727 1289 726 318 38 107 109 179 440 700 806 541 619 643 430 318 308 350 4 21 0 0 0 0 0 0 0 0 0 0 0
811 1948 1788 1031 350 127 88 86 270 270 615 482 423 340 340 231 15 0 2 4 1 3 2 4 6 2 0 0 0 0 0 0
744 1756 2441 1164 735 196 187 246 250 467 291 188 211 174 129 8 0 0 0 0 4 3 1 1 1 0 0 0 0 0 0 0
793 1529 2504 1372 206 286 171 249 193 199 31 25 56 131 156 71 41 26 5 0 0 0 0 0 0 0 0 0 0 0 0 0
928 1605 2202 1341 297 174 23 11 4 0 0 17 30 56 51 71 36 29 21 44 175 40 6 7 9 6 0 0 0 0 0 0
709 1447 1912 1184 225 76 14 6 0 0 9 19 12 26 31 51 20 41 70 115 42 20 6 4 8 11 21 1 0 0 0 0
582 1390 1427 802 224 76 50 43 34 24 30 23 0 15 5 28 33 45 154 81 154 137 94 129 53 25 10 30 14 0 0 0
494 1120 1036 387 125 53 8 1 0 0 1 0 0 4 0 0 1 26 42 23 87 128 217 158 183 165 28 35 110 23 0 6
539 519 171 55 14 0 0 0 0 0 0 0 0 0 0 0 0 0 5 0 22 95 106 135 158 278 255 226 187 125 82 13
0 0 0 0 0 0 0 0 0 2 7 0 0 0 0 0 0 0 0 0 3 31 95 62 119 227 303 298 205 129 195 155
0 0 0 0 0 0 0 0 0 0 0 0 0 0 0 0 0 0 0 0 0 14 29 55 58 87 279 290 212 163 215 220
0 0 0 0 0 0 0 0 0 1 0 0 1 0 0 0 0 0 0 0 7 7 7 14 51 24 63 58 161 186 68 95
0 0 0 0 0 0 0 0 1 0 2 0 0 0 0 0 0 0 0 0 5 13 20 13 7 4 2 0 0 10 29 25
0 0 0 0 0 0 0 0 0 0 0 0 0 0 0 0 0 0 1 13 22 6 0 0 0 0 0 0 0 0 1 7
0 0 0 0 0 0 0 0 0 0 0 0 0 0 0 0 0 0 23 22 7 11 0 15 0 0 1 0 1 0 0 1
0 0 0 0 5 5 5 11 8 6 1 0 0 0 0 0 0 29 17 35 36 7 29 0 0 0 0 0 0 0 0 0

GFSFLT2_con_mucape_024.txt.gz
CAPE
91 125 394 577 566 598 613 636 627 646 640 633 653 697 747 676 540 415 322 261 215 157 109 55 25 3 0 0 0 6 0 107
214 322 364 313 244 386 507 480 445 407 321 267 319 321 360 515 383 171 99 51 11 0 0 0 0 0 0 0 0 0 23 93
528 290 436 687 328 290 409 558 479 417 383 201 424 444 366 417 58 80 18 0 0 0 0 0 0 0 0 0 0 0 0 0
815 739 556 167 3 198 686 669 632 729 766 758 720 579 518 169 141 54 40 3 2 0 0 0 0 0 0 0 0 0 0 0
963 1566 1021 853 602 59 472 486 665 1132 1351 608 934 478 959 576 376 207 79 24 13 0 0 0 9 0 0 0 0 0 0 0
1411 1733 1603 852 696 410 307 389 543 652 538 677 522 430 527 163 71 0 0 0 0 4 0 22 0 8 0 0 0 0 0 0
853 1889 2337 1551 802 856 636 520 813 486 518 476 394 273 314 254 65 24 1 0 0 4 0 0 0 0 0 0 0 0 0 0
1121 1561 2492 1817 790 550 539 710 753 631 252 92 173 213 278 167 74 60 18 0 0 0 0 0 0 0 0 0 0 0 0 0
1211 656 2192 1913 730 406 221 223 36 64 107 36 52 58 68 76 69 60 47 83 64 28 18 1 0 0 1 4 0 0 0 0
174 958 2194 1968 1073 410 126 87 62 42 27 63 28 15 85 84 95 90 106 112 70 80 55 30 8 3 0 0 1 0 0 0
518 1242 1797 1645 910 268 168 93 53 59 115 47 54 3 67 30 29 47 85 39 51 66 46 44 39 11 0 0 2 14 6 0
595 1139 1157 810 362 154 61 39 24 36 21 15 5 0 11 3 0 5 32 1 0 1 9 4 18 29 18 8 6 8 24 1
516 609 517 155 44 9 2 1 0 1 9 26 0 3 0 0 0 0 0 0 0 0 0 0 0 0 13 3 6 41 68 31
8 66 5 0 0 0 0 0 4 7 15 0 0 1 0 0 0 0 0 0 0 0 0 0 0 0 38 14 2 0 0 16
0 0 0 0 0 0 0 0 9 1 0 0 5 0 0 0 0 4 0 0 0 0 0 0 0 0 5 49 19 3 0 0
0 0 0 0 0 0 0 0 2 2 0 0 0 0 0 0 0 0 0 0 0 0 10 1 0 0 0 1 8 23 11 0
0 0 0 0 0 0 0 0 0 0 0 0 0 0 0 0 0 0 0 0 4 0 0 0 2 0 0 0 0 0 8 10
0 0 0 0 0 0 0 0 0 0 2 1 0 0 0 0 0 0 0 8 14 12 12 2 0 0 0 0 0 0 0 0
3 0 0 2 5 15 16 13 17 9 1 0 0 0 0 0 0 8 7 12 7 8 3 3 1 0 0 0 0 0 0 0
14 3 0 0 3 0 0 8 3 2 1 0 0 0 0 0 26 16 31 26 19 15 6 18 28 18 1 0 0 0 0 0

GFSFLT2_con_mucape_030.txt.gz
CAPE
105 209 262 274 247 266 299 415 513 600 599 639 597 550 566 527 334 178 127 57 8 0 0 0 0 0 0 0 0 0 0 1
0 52 8 0 22 115 115 148 205 248 243 231 201 261 328 310 212 188 140 41 0 0 0 0 0 0 0 0 0 0 0 0
10 0 0 0 0 45 118 175 131 129 184 130 143 97 128 174 31 68 127 29 0 0 0 0 0 0 0 0 0 0 0 0
42 10 3 0 17 64 105 132 194 167 284 240 160 237 134 153 106 77 106 44 23 11 0 0 0 0 0 0 0 0 0 0
163 111 27 4 19 81 77 210 328 342 315 290 283 285 355 186 71 18 0 1 0 0 0 0 0 0 0 0 0 0 0 0
167 238 203 85 116 88 173 188 370 466 431 249 57 271 0 9 17 0 0 0 0 0 0 0 0 0 0 0 0 0 0 0
187 208 130 74 69 52 123 371 405 592 236 78 23 7 0 0 0 0 0 0 0 0 0 0 0 0 0 0 0 0 0 0
285 220 120 159 34 35 10 90 432 173 210 96 13 30 5 6 0 0 0 0 0 0 0 0 0 0 0 0 0 0 0 0
548 589 632 533 361 211 131 114 113 141 158 36 27 1 8 0 0 0 0 0 0 0 0 0 0 0 0 0 0 0 0 0
841 881 373 380 397 212 162 107 74 36 20 5 18 8 6 1 0 0 0 0 0 0 0 0 0 0 0 0 0 0 0 0
1187 696 491 105 314 258 31 8 31 25 0 3 9 17 7 5 5 0 0 0 0 0 0 0 0 0 0 0 0 0 0 0
919 731 618 476 175 72 54 74 22 0 0 0 0 0 3 6 6 7 4 0 0 0 0 0 0 0 0 0 0 0 0 0
223 110 106 90 108 100 78 31 11 2 0 0 2 10 23 24 9 4 0 0 0 0 0 0 0 0 0 0 0 0 0 0
47 13 12 0 0 0 0 0 0 0 0 0 0 1 5 7 0 2 6 0 0 0 0 0 0 0 0 0 0 0 0 0
0 0 0 0 0 0 0 0 0 0 0 0 0 0 0 0 0 0 0 0 0 0 0 0 0 4 9 0 0 0 0 0
0 0 0 0 0 0 0 0 0 0 0 0 0 0 0 0 0 0 0 0 0 0 0 11 14 1 1 6 3 0 0 0
0 0 0 0 0 0 0 0 0 0 0 0 0 0 0 0 0 0 0 0 0 3 2 2 0 1 6 5 3 0 0 0
0 0 0 0 0 0 0 0 0 0 1 4 0 0 0 0 0 0 0 0 0 0 0 0 1 2 4 1 0 0 0 0
0 0 0 0 0 0 0 0 0 2 4 1 0 0 0 0 0 0 0 0 0 1 6 2 1 1 1 2 1 0 4 5
0 0 0 0 0 0 0 0 0 1 0 0 0 0 0 0 0 0 0 0 0 3 4 1 2 0 0 14 17 28 24 17

GFSFLT2_con_mucape_036.txt.gz
CAPE
305 387 494 583 611 605 630 666 684 723 736 710 692 560 477 368 176 76 17 10 0 3 0 0 0 0 0 0 0 0 0 0
8 95 121 108 185 246 315 392 408 421 462 374 304 238 176 82 37 34 1 11 91 127 57 24 5 0 0 0 0 0 0 0
0 0 0 0 1 80 203 269 256 245 249 155 86 17 46 66 12 13 137 106 118 178 171 67 18 0 0 0 0 0 0 0
0 0 0 0 0 0 0 6 21 35 37 51 48 58 46 82 97 80 135 53 45 13 0 0 0 0 0 0 0 0 0 0
0 0 0 0 0 0 0 0 67 129 162 144 119 140 161 124 102 53 0 0 0 0 0 0 0 0 0 0 0 0 0 0
0 0 0 0 0 0 12 78 89 128 227 224 188 214 193 161 50 0 0 0 0 0 0 0 0 0 0 0 0 0 0 0
4 0 0 0 0 36 95 142 249 264 319 333 249 110 164 0 0 0 0 0 0 0 0 0 0 0 0 0 0 0 0 0
169 43 3 0 32 79 96 132 227 368 471 444 221 57 20 0 0 0 0 0 0 0 0 0 0 0 0 0 0 0 0 0
264 193 85 102 36 33 97 146 261 344 491 500 183 42 2 0 0 0 4 10 3 0 0 0 0 0 0 0 0 0 0 0
305 244 192 53 23 54 95 133 268 195 131 268 154 68 3 2 3 17 24 15 1 1 0 0 0 0 0 0 0 0 0 0
273 156 115 70 20 0 93 94 92 112 62 67 37 7 8 27 39 41 31 20 18 20 3 0 0 0 0 0 0 0 0 0
290 128 47 7 55 62 99 93 44 28 39 36 7 12 19 16 8 3 3 3 2 0 0 1 0 0 0 0 0 0 0 0
228 224 119 74 80 87 100 21 9 0 0 0 0 0 0 0 0 0 0 0 0 0 0 0 0 0 0 0 0 0 0 0
23 40 18 0 0 0 0 0 0 0 0 0 0 0 0 0 0 0 0 0 0 0 0 0 0 0 0 0 0 0 0 0
0 0 0 0 0 0 0 0 0 0 0 0 0 0 0 0 0 0 0 0 0 0 0 0 0 0 0 0 0 0 0 0
0 0 0 0 0 0 0 0 0 0 0 0 0 0 0 0 0 0 0 0 0 0 0 0 0 0 0 0 0 0 0 0
0 0 0 0 0 0 0 0 0 0 0 0 0 0 0 0 0 0 0 0 0 0 0 0 0 0 0 0 0 0 0 0
0 0 0 0 0 0 0 0 0 0 0 0 0 0 0 0 0 0 0 0 0 0 0 0 0 0 0 0 0 0 0 0
0 0 0 0 0 0 0 0 0 0 0 0 0 0 0 0 0 0 0 0 0 0 0 0 0 2 0 0 0 0 3 2
0 0 0 0 0 0 0 0 0 0 0 0 0 0 0 0 0 0 0 0 0 0 1 2 0 0 0 0 0 19 22 15

GFSFLT2_con_mucape_039.txt.gz
CAPE
738 753 815 848 826 791 807 832 798 719 688 681 595 438 336 253 171 76 0 54 40 2 0 0 0 0 0 0 0 0 0 0
410 508 625 736 755 630 597 536 509 524 491 395 239 229 137 109 10 114 128 82 103 82 105 42 14 0 0 0 0 0 0 0
108 180 225 260 325 367 329 375 340 304 291 182 107 277 247 152 38 74 140 143 132 79 42 9 0 0 0 0 0 0 0 0
28 69 16 32 19 281 320 277 242 305 291 331 259 282 300 235 128 20 28 0 0 0 0 0 0 0 0 0 0 0 0 0
0 0 0 0 17 51 36 101 142 172 251 275 246 228 305 336 373 175 44 0 0 0 0 0 0 0 0 0 0 0 0 0
0 0 0 0 0 16 15 63 113 192 249 260 373 366 376 325 167 0 0 0 0 0 0 0 0 0 0 0 0 0 0 0
0 0 0 0 0 3 16 96 223 337 394 416 301 196 139 0 0 0 0 0 0 0 0 0 0 0 0 0 0 0 0 0
51 0 11 0 8 49 94 140 180 229 338 399 368 162 77 4 0 0 0 0 0 2 0 0 0 0 0 0 0 0 0 0
204 154 55 59 53 124 75 121 113 216 223 264 246 156 90 15 0 0 1 5 8 9 7 2 0 0 0 0 0 0 0 0
228 230 92 132 70 20 0 17 88 102 153 149 132 92 59 26 11 14 14 20 21 15 9 4 1 0 0 0 0 0 0 0
158 194 104 83 12 0 0 7 65 49 63 20 17 29 10 9 6 8 8 1 0 1 0 0 0 0 0 0 0 0 0 0
163 123 119 83 30 5 26 29 13 41 34 25 4 0 0 0 0 0 0 0 0 0 0 0 0 0 0 0 0 0 0 0
177 177 101 38 23 14 0 0 0 0 0 0 0 0 0 0 0 0 0 0 0 0 0 0 0 0 0 0 0 0 0 0
250 91 0 0 0 0 0 0 0 0 0 0 0 0 0 0 0 0 0 0 0 0 0 0 0 0 0 0 0 0 0 0
4 0 0 0 0 0 0 0 0 0 0 0 0 0 0 0 0 0 0 0 0 0 0 0 0 0 1 0 0 0 0 0
0 0 0 0 0 0 0 0 0 0 0 0 0 0 0 0 0 0 0 0 0 0 0 0 0 0 5 7 27 47 0 0
0 0 0 0 0 0 0 0 0 0 0 0 0 0 0 0 0 0 0 0 0 0 0 2 10 20 24 25 32 9 50 0
0 0 0 0 0 0 0 0 0 0 0 0 0 0 0 0 0 0 0 0 0 1 20 36 41 32 32 36 0 0 0 0
0 0 0 0 0 0 0 0 0 0 0 0 0 0 0 0 0 0 0 0 6 13 53 64 80 86 75 71 68 60 59 68
0 0 0 0 0 6 0 0 0 0 0 0 0 0 0 0 0 0 0 0 0 5 49 95 77 85 84 75 62 76 80 78

GFSFLT2_con_mucape_045.txt.gz
CAPE
1051 1056 985 853 755 716 751 811 763 679 712 598 459 400 321 251 163 26 16 20 0 31 4 0 0 0 0 0 0 14 0 0
545 610 601 643 716 627 660 588 494 517 458 301 177 116 102 160 213 142 64 62 93 52 1 0 0 0 0 0 0 18 0 0
369 344 388 405 502 645 441 489 429 362 209 188 29 68 69 145 96 180 33 10 0 0 0 0 0 0 0 0 0 0 0 0
282 307 292 192 66 253 181 62 141 315 322 306 567 485 591 380 203 132 0 0 0 0 0 0 6 13 4 0 0 0 0 0
113 196 207 65 145 165 72 178 513 688 695 731 855 582 723 609 744 493 397 16 125 24 45 34 1 0 0 0 0 0 0 0
40 152 214 148 81 77 272 392 560 657 981 962 889 1044 1120 867 651 387 260 168 195 110 69 0 0 0 0 0 0 0 0 0
12 78 168 371 438 586 664 693 787 1021 1022 1227 1286 1284 1036 896 545 361 215 83 60 37 10 0 0 0 0 0 0 0 0 0
132 188 320 573 753 756 652 618 723 1043 1139 847 665 704 767 662 527 184 51 22 18 14 0 1 0 0 0 0 0 0 0 0
470 540 529 610 325 93 88 108 122 257 444 470 442 553 605 377 92 27 18 19 9 4 3 0 0 0 0 0 0 0 0 0
649 535 654 418 115 35 17 9 0 41 133 100 23 45 30 28 19 0 0 0 0 0 0 0 0 0 0 0 0 0 0 0
766 754 606 172 77 21 0 0 0 0 26 33 39 24 0 0 0 0 0 0 0 0 0 0 0 0 0 0 0 0 0 0
918 696 333 126 61 37 8 1 0 1 0 0 0 0 0 0 0 0 0 0 0 0 0 0 0 0 0 0 2 0 0 0
760 482 154 440 554 20 0 5 0 0 0 0 0 0 0 0 0 0 0 0 0 0 0 0 0 0 0 0 0 0 2 2
644 503 550 759 501 106 13 1 0 0 0 0 0 0 0 0 0 0 0 0 0 0 0 0 0 2 0 0 0 0 0 1
719 792 526 242 4 5 7 0 0 0 0 0 0 0 0 0 0 0 0 0 0 0 3 7 0 17 24 9 0 0 0 9
819 161 5 0 0 0 0 4 2 21 10 0 0 0 0 0 0 0 0 1 7 17 19 36 62 41 38 28 27 49 0 0
0 0 0 0 0 1 13 18 15 3 0 5 0 5 1 0 0 2 7 15 25 48 75 88 74 62 48 55 56 56 66 52
0 1 0 0 0 5 7 10 0 0 0 0 0 4 2 5 7 12 18 25 25 32 62 57 83 83 57 60 59 53 43 52
0 0 2 4 13 6 0 0 0 4 7 3 0 0 0 2 5 10 18 15 14 30 57 93 71 69 62 93 47 51 45 48
0 7 10 17 12 0 0 0 2 4 4 0 0 0 0 4 12 5 0 1 4 34 68 98 82 92 80 62 61 62 59 47

GFSFLT2_con_mucape_048.txt.gz
CAPE
744 833 798 687 626 608 599 530 478 570 551 411 348 292 233 212 217 198 133 84 20 0 0 0 0 0 0 0 0 30 0 6
787 806 802 579 527 514 407 334 368 359 254 179 93 82 137 171 170 174 122 71 28 0 0 0 0 0 0 0 0 0 0 0
562 466 528 531 553 461 369 394 357 247 149 98 19 17 45 102 112 191 78 0 0 0 0 0 0 3 10 0 0 0 0 0
284 374 381 431 270 323 220 135 83 83 76 187 315 492 261 155 93 161 48 6 3 0 0 0 10 0 0 3 0 0 0 0
210 339 343 225 55 242 46 138 425 616 655 671 731 746 463 366 350 201 151 11 25 6 13 13 8 0 0 0 0 0 0 0
187 283 459 326 112 125 94 393 680 614 876 836 834 803 808 770 603 473 345 25 94 35 33 8 0 0 6 5 0 2 0 0
138 251 339 335 655 671 516 641 666 650 695 759 699 950 753 728 441 376 93 15 0 1 0 0 0 0 0 0 0 0 0 0
94 193 500 772 565 502 297 301 443 658 630 592 660 697 571 476 236 121 17 16 2 0 0 0 0 0 0 0 0 0 0 0
213 364 670 420 266 164 112 88 38 114 215 211 296 264 260 175 133 79 12 3 0 0 0 0 0 0 0 0 0 0 0 0
366 539 437 199 54 5 1 0 0 0 2 0 24 7 4 3 7 0 0 0 0 0 0 0 0 0 0 0 0 0 0 0
551 604 288 115 22 14 16 9 0 0 0 0 3 4 6 1 0 0 0 0 0 0 0 0 0 0 0 0 0 0 0 0
748 500 314 75 32 29 16 4 0 0 0 0 0 1 0 0 0 0 0 0 0 0 0 0 0 0 0 0 0 0 0 0
612 444 241 59 262 77 2 0 0 0 0 0 0 0 0 0 0 0 0 0 0 0 0 0 0 0 0 0 0 0 0 0
617 479 242 290 498 18 1 0 0 0 0 0 0 0 0 0 0 0 0 0 0 0 0 0 0 0 0 0 0 0 0 0
585 568 353 565 236 11 0 0 0 0 0 0 0 0 0 0 0 0 0 0 0 0 0 0 0 0 0 0 0 0 0 0
603 636 650 280 3 0 0 0 0 0 0 1 0 0 0 0 0 0 0 0 0 0 0 0 0 0 0 0 1 1 0 0
843 665 48 0 0 0 0 47 19 9 9 0 5 0 0 0 0 0 0 0 0 3 4 1 5 9 6 7 3 1 0 0
172 0 0 0 0 12 27 49 2 0 0 0 0 0 0 0 2 0 0 0 0 0 0 0 5 15 12 14 17 8 0 0
3 0 0 0 0 5 10 0 0 0 0 0 2 0 0 0 0 0 0 0 0 0 0 0 16 39 22 20 20 0 0 0
0 0 0 0 14 6 0 0 0 1 2 10 6 0 0 0 0 0 0 0 0 0 0 0 15 49 25 26 17 0 14 3

GFSFLT2_con_mucape_051.txt.gz
CAPE
348 493 582 541 457 398 313 318 345 313 219 153 134 125 143 180 197 210 145 151 98 0 0 0 0 0 0 0 0 44 0 0
370 403 517 447 382 258 227 224 194 150 93 81 74 60 66 111 108 142 109 44 0 0 0 0 0 0 0 0 0 0 0 0
272 467 429 373 275 227 204 223 137 86 51 35 4 5 3 29 2 65 33 5 0 0 0 0 0 0 0 11 0 0 0 0
275 463 365 308 266 105 89 104 13 3 54 55 65 145 68 34 44 15 10 1 0 0 0 2 0 0 0 0 0 0 0 0
357 343 286 155 153 6 2 20 0 9 210 258 222 255 25 145 154 44 43 0 0 3 0 0 0 0 0 0 0 0 0 0
249 202 131 8 87 22 108 166 227 164 367 400 433 407 319 183 142 116 21 4 2 8 4 0 0 0 0 0 0 0 0 0
62 25 2 58 132 229 269 362 363 391 411 323 392 446 212 136 90 43 39 19 18 0 0 0 0 0 0 0 0 0 0 0
22 0 47 268 190 191 341 358 353 347 347 247 311 318 240 169 99 62 38 22 3 0 0 0 0 0 0 0 0 0 0 0
7 180 270 232 190 211 207 220 195 129 103 197 195 245 126 101 95 67 40 2 0 0 0 0 0 0 0 0 0 0 0 0
32 356 428 258 159 170 174 93 5 3 5 25 85 44 20 28 26 0 0 0 0 0 0 0 0 0 0 0 0 0 0 0
410 466 509 404 234 69 0 0 0 0 0 0 0 0 0 0 0 0 0 0 0 0 0 0 0 0 0 0 0 0 0 0
481 448 431 174 64 38 45 51 36 15 0 0 0 0 0 0 0 0 0 0 0 0 0 0 0 0 0 0 0 0 0 0
427 429 323 19 43 47 52 29 21 4 0 0 0 0 0 0 0 0 0 0 0 0 0 0 0 0 0 0 0 0 0 0
479 390 268 141 40 79 16 0 0 0 0 0 0 0 0 0 0 0 0 0 0 0 0 0 0 0 0 0 0 0 0 0
565 444 314 88 185 52 0 0 0 0 0 0 0 0 0 0 0 0 0 0 0 0 0 0 0 0 0 0 0 0 0 0
578 431 355 106 347 18 0 0 0 0 0 0 0 0 0 0 0 0 0 0 0 0 0 0 0 0 0 0 0 0 0 0
635 507 232 276 379 9 0 0 0 0 0 0 0 0 2 0 0 0 0 0 0 0 0 0 0 0 0 0 0 0 0 0
427 443 439 242 2 0 0 0 0 0 0 2 2 3 0 0 0 0 0 0 0 0 0 0 0 0 0 1 3 0 0 0
473 650 397 1 0 0 0 0 0 1 0 3 13 9 8 6 0 0 0 0 0 0 0 0 0 0 0 12 9 17 16 11
629 77 0 0 0 0 0 0 1 6 17 28 19 15 0 0 0 0 0 0 0 0 0 0 0 0 0 5 6 14 5 25

GFSFLT2_con_mucape_057.txt.gz
CAPE
84 115 128 206 370 494 431 375 365 338 312 281 252 201 203 229 240 237 191 143 97 19 0 1 0 0 0 0 0 0 0 0
46 63 165 265 371 393 335 300 283 255 239 202 145 147 178 196 199 200 175 121 31 9 0 0 6 0 0 0 0 0 0 0
29 156 221 225 331 325 259 235 188 149 123 76 27 20 5 0 45 75 91 44 61 41 1 0 0 0 0 0 0 0 0 0
35 123 110 263 260 256 143 106 60 33 19 4 0 0 0 1 21 43 29 12 9 0 0 0 0 0 0 0 0 0 0 0
183 175 172 248 205 155 90 41 18 3 18 15 12 39 64 15 0 0 0 0 0 0 0 0 0 0 0 0 0 0 0 0
121 248 249 208 115 75 39 3 2 26 87 121 89 25 132 36 8 2 0 0 0 0 0 0 0 0 0 0 0 0 0 0
94 226 273 143 0 0 0 34 151 201 179 200 272 66 114 103 34 13 1 0 1 0 3 4 2 0 0 0 0 0 0 0
256 315 243 61 1 0 4 54 265 346 407 334 354 318 232 40 14 1 2 17 9 15 17 7 0 0 0 0 0 0 0 0
334 360 220 53 19 37 59 240 390 405 377 371 333 236 69 5 26 8 26 29 27 22 1 0 0 0 0 0 0 0 0 0
347 163 71 83 61 156 206 396 427 447 347 171 211 121 74 91 32 23 28 28 9 0 0 0 0 0 0 0 0 0 0 0
407 206 76 149 163 247 388 424 384 376 194 25 47 56 39 15 21 11 2 0 0 0 0 0 0 0 0 0 0 0 0 0
262 276 137 248 285 319 379 439 360 194 24 0 0 1 0 0 0 0 0 0 0 0 0 0 0 0 0 0 0 0 0 0
202 156 236 273 313 358 340 294 175 63 0 0 0 0 0 0 0 0 0 0 0 0 0 0 0 0 0 0 0 0 0 0
142 187 256 269 279 215 126 23 19 26 11 24 12 0 0 0 0 0 0 0 0 0 0 0 0 0 0 0 0 0 0 0
143 236 295 313 342 284 194 55 76 77 28 24 0 0 0 0 0 0 0 0 0 0 0 0 0 0 0 0 0 0 0 0
229 189 332 363 401 431 140 124 112 49 27 0 0 0 0 0 0 0 0 0 0 0 0 0 0 0 0 0 0 0 0 0
303 225 285 414 358 268 183 160 90 28 0 0 0 0 0 0 0 0 0 0 0 0 0 0 0 0 0 0 0 0 0 0
262 289 449 442 417 276 223 131 4 1 0 0 0 0 0 0 6 4 4 4 4 0 0 0 0 0 0 0 0 0 0 0
242 389 483 568 513 347 154 39 1 0 0 0 0 0 2 6 15 7 0 0 0 1 1 0 0 0 0 0 0 0 0 0
287 483 628 639 505 375 187 340 12 0 2 5 0 5 7 6 3 1 1 0 1 0 0 0 0 0 0 0 0 0 0 3

GFSFLT2_con_mucape_060.txt.gz
CAPE
246 250 269 98 263 479 436 444 395 365 387 390 374 326 271 257 242 225 203 155 120 91 43 0 0 0 0 0 0 0 0 0
219 109 48 86 196 354 321 364 347 343 360 268 202 207 213 193 224 269 214 148 110 14 3 0 0 0 0 0 0 0 0 0
59 46 70 39 56 311 301 354 303 261 226 162 65 50 33 0 125 160 161 128 8 0 0 0 0 0 0 0 0 0 0 0
8 10 43 100 237 252 189 184 109 89 56 15 12 1 0 5 42 92 86 0 0 0 0 0 0 0 0 0 0 0 0 0
1 32 62 217 239 185 101 53 48 35 16 1 0 10 0 0 0 0 0 0 0 0 0 0 0 0 0 0 0 0 0 0
4 52 153 256 172 131 62 12 12 0 0 0 10 37 19 1 0 0 0 0 0 0 0 0 0 0 0 0 0 0 0 0
23 175 224 243 111 69 19 3 0 29 40 45 93 120 128 44 30 21 2 0 0 0 0 4 2 0 0 0 0 0 0 0
73 198 250 234 44 0 0 0 0 56 188 201 235 40 130 107 45 35 0 9 17 6 18 5 0 0 0 0 0 0 0 0
146 204 291 187 0 0 0 7 171 288 371 371 308 310 243 87 69 33 24 21 39 27 17 0 0 0 0 0 0 0 0 0
194 284 309 97 6 0 6 97 288 449 425 404 348 258 188 71 75 49 26 24 38 9 0 0 0 0 0 0 0 0 0 0
268 347 352 67 0 0 35 200 369 415 319 264 193 176 188 121 90 40 51 28 0 0 0 0 0 0 0 0 0 0 0 0
327 391 158 12 0 57 142 292 401 331 256 225 109 145 90 68 58 30 0 0 0 0 0 0 0 0 0 0 0 0 0 0
387 431 165 25 46 115 234 341 332 345 301 96 28 45 43 4 0 0 0 0 0 0 0 0 0 0 0 0 0 0 0 0
388 336 297 107 133 194 247 335 379 336 203 77 34 48 28 0 0 0 0 0 0 0 0 0 0 0 0 0 0 0 0 0
381 334 265 162 188 258 319 310 226 155 65 76 65 68 1 0 0 0 0 0 0 0 0 0 0 0 0 0 0 0 0 0
327 317 206 97 185 284 303 258 163 63 51 43 58 8 0 0 0 0 0 0 0 0 0 0 0 0 0 0 0 0 0 0
225 286 152 117 204 242 277 287 202 56 35 47 33 0 0 0 0 0 0 0 0 4 0 0 0 0 0 0 0 0 0 0
115 190 165 115 188 231 303 281 60 59 66 33 2 0 0 0 0 0 1 1 3 1 0 0 0 0 0 0 0 0 0 0
50 55 73 139 156 247 326 177 114 80 12 0 1 0 0 0 0 2 5 11 5 0 5 0 0 0 0 0 0 0 0 0
39 46 42 148 98 211 293 256 210 65 0 5 6 7 0 0 6 0 5 25 10 6 0 0 1 0 0 0 0 0 0 0

GFSFLT2_con_mucape_063.txt.gz
CAPE
274 264 230 224 368 289 260 321 309 364 387 407 342 301 287 225 175 170 176 142 67 25 4 0 0 0 0 0 0 0 0 0
231 117 96 4 147 208 242 272 286 278 273 253 198 220 222 243 182 184 200 204 140 16 7 0 0 0 0 0 0 0 0 0
141 99 49 39 170 179 274 262 239 191 198 158 111 120 78 45 119 184 85 19 0 0 0 0 0 0 0 0 0 0 0 0
142 68 25 1 146 189 252 225 162 142 108 76 62 94 120 51 81 88 2 0 0 0 0 0 0 0 0 0 0 0 0 0
30 39 19 43 126 236 165 121 109 83 56 42 53 95 141 70 37 0 0 0 0 0 0 0 0 0 0 0 0 0 0 0
0 4 2 218 226 163 83 38 40 48 40 43 108 86 116 48 3 0 0 0 0 0 2 0 0 0 0 0 0 0 0 0
0 2 129 207 165 142 65 40 24 52 44 63 164 111 106 11 17 9 0 0 1 11 5 0 0 0 0 0 0 0 0 0
2 74 241 232 178 93 29 17 13 11 61 96 206 160 152 49 28 21 19 4 22 16 0 4 0 0 0 0 0 0 0 0
1 168 318 245 98 40 8 1 14 8 52 142 188 149 202 89 51 68 45 14 19 10 1 0 0 0 0 0 0 0 0 0
91 183 268 285 98 2 5 28 165 267 325 234 241 208 97 82 65 47 56 41 21 27 2 0 0 0 0 0 0 0 0 0
211 306 292 287 98 6 56 156 216 314 366 338 304 165 101 75 66 55 46 50 14 0 0 0 0 0 0 0 0 0 0 0
311 359 323 320 29 2 57 73 196 354 333 284 190 97 78 62 62 52 38 22 0 0 0 0 0 0 0 0 0 0 0 0
256 283 364 365 18 0 0 75 230 350 288 197 139 82 38 62 43 9 0 0 0 0 0 0 0 0 0 0 0 0 0 0
261 348 419 159 51 18 21 116 217 278 216 161 80 26 33 33 2 0 0 0 0 0 0 0 0 0 0 0 0 0 0 0
187 396 481 378 105 36 76 151 232 280 216 130 56 18 4 17 0 0 0 0 0 0 0 0 0 0 0 0 0 0 0 0
164 331 467 511 352 182 148 161 221 293 193 53 40 7 12 20 0 0 0 0 0 0 0 1 2 0 2 0 0 0 0 0
184 373 384 332 287 290 167 222 252 187 104 37 11 8 34 0 0 0 0 0 0 0 2 0 1 1 0 1 0 0 0 0
204 317 304 367 284 234 158 228 187 186 127 34 7 54 28 0 0 0 0 0 3 4 6 1 7 3 2 0 0 0 0 0
193 303 278 270 375 269 148 207 260 207 143 61 51 79 13 12 1 2 1 5 6 20 0 0 8 1 0 0 0 0 0 0
96 141 223 109 238 99 95 178 170 143 166 151 109 39 9 5 4 7 10 23 12 11 0 0 6 0 0 0 0 0 0 0

GFSFLT2_con_mucape_069.txt.gz
CAPE
353 603 541 283 156 168 179 294 305 324 365 317 278 264 248 272 302 335 290 231 221 153 81 16 0 0 0 0 0 0 2 5
92 96 134 57 82 124 183 225 204 220 212 187 192 187 211 224 217 240 237 206 149 30 32 0 0 0 0 0 0 0 0 5
153 145 92 10 1 169 227 238 159 156 139 124 75 48 22 56 182 194 188 122 78 8 0 0 0 0 0 0 0 0 0 0
167 145 156 8 0 11 157 196 125 121 90 98 67 147 106 72 115 100 70 8 0 0 0 0 0 0 0 0 0 0 0 0
209 173 69 1 9 3 7 82 68 186 211 179 169 229 238 137 55 3 0 0 0 0 0 0 0 0 0 0 0 0 0 0
135 147 89 2 2 0 55 49 96 204 215 342 410 329 269 119 42 19 0 0 0 0 0 0 0 0 0 0 0 0 0 0
97 41 30 32 6 4 0 117 144 216 267 372 350 365 496 207 172 38 2 0 0 0 0 0 0 0 0 0 0 0 0 0
7 6 5 12 9 3 2 98 87 164 241 267 508 413 475 287 204 63 3 0 1 0 1 0 0 0 0 0 0 0 0 0
0 2 2 1 14 95 195 205 174 104 114 405 324 338 354 288 155 43 20 15 11 0 10 0 0 0 0 0 0 0 0 0
1 0 0 58 120 186 252 145 172 143 178 260 359 469 473 296 59 40 34 22 27 13 0 0 0 0 0 0 0 0 0 0
0 4 61 239 308 331 193 297 71 27 163 420 662 702 478 284 119 71 15 31 18 5 0 0 0 0 0 0 0 0 0 0
50 201 287 457 589 284 100 107 100 141 379 535 710 722 452 274 183 31 8 3 0 0 0 0 0 0 0 0 0 0 0 0
66 265 376 487 424 280 89 39 75 191 515 600 686 604 455 384 132 0 13 0 0 0 0 0 0 0 0 0 0 0 0 0
249 274 459 513 396 219 49 40 54 173 728 704 698 540 383 253 78 0 6 0 2 0 0 0 0 0 0 0 0 0 0 0
319 370 367 533 468 286 102 84 103 232 666 597 542 468 394 258 57 7 1 13 0 0 0 0 0 0 0 0 0 0 0 0
588 543 514 705 693 401 208 123 150 325 538 484 508 341 224 29 68 34 3 9 3 0 0 0 0 0 1 0 0 0 0 0
739 654 756 752 985 683 434 312 333 472 723 676 593 174 56 66 50 12 3 14 6 1 0 0 0 5 0 0 2 1 0 0
700 723 857 882 990 1036 885 678 623 529 932 689 520 117 14 53 11 5 42 21 37 13 0 0 5 13 0 7 5 0 0 0
993 843 769 935 1129 1248 1283 1247 1063 1180 904 589 395 42 19 48 48 53 70 37 46 9 2 1 13 6 0 0 1 0 0 0
1260 1112 993 845 1105 1527 1558 1440 1307 1522 1151 766 344 36 31 46 81 74 78 38 45 15 0 2 3 1 0 0 0 1 0 0

GFSFLT2_con_mucape_072.txt.gz
CAPE
112 63 234 332 437 279 349 371 419 441 401 326 316 368 513 566 460 381 332 307 255 174 80 18 6 0 0 0 0 0 0 0
0 39 82 80 128 180 192 243 243 216 177 138 147 179 269 280 245 249 232 210 159 84 46 16 0 0 0 0 0 0 0 0
24 19 17 7 28 143 187 198 135 127 111 85 75 84 92 115 202 207 191 161 105 52 15 0 0 0 0 0 0 0 0 0
41 2 16 1 0 30 188 169 92 101 58 57 32 65 100 121 159 142 134 94 66 23 0 0 0 0 0 0 0 0 0 0
85 56 27 4 16 1 2 14 86 98 115 86 161 124 126 59 18 2 0 0 0 0 0 0 0 0 0 0 0 0 0 0
139 124 25 24 15 3 12 19 86 72 127 182 287 229 189 71 32 6 0 0 0 0 0 0 0 0 0 0 0 0 0 0
51 101 103 18 6 2 1 57 64 96 128 217 254 270 229 162 85 12 0 0 0 0 0 0 0 0 0 0 0 0 0 0
32 5 17 34 6 5 6 10 92 125 182 185 319 356 291 262 199 81 0 0 0 0 0 0 0 0 0 0 0 0 0 0
15 3 5 5 16 14 15 5 67 84 123 217 280 298 334 365 318 187 3 0 0 0 0 0 0 0 0 0 0 0 0 0
11 1 0 0 0 0 1 48 77 115 180 198 347 370 378 359 241 97 3 0 0 0 0 0 0 0 0 0 0 0 0 0
0 0 0 0 0 0 20 82 95 165 138 218 297 365 387 279 102 4 10 5 0 0 1 0 0 0 0 0 0 0 0 0
0 0 0 0 0 73 111 126 63 69 286 351 432 489 431 332 93 27 19 0 0 5 0 0 0 0 0 0 0 0 0 0
0 0 0 15 69 44 66 72 31 59 138 337 433 482 459 290 271 125 20 0 7 8 4 0 0 0 0 0 0 0 0 0
0 0 117 229 218 130 22 0 0 0 134 418 494 531 480 359 344 53 24 0 0 0 4 0 2 0 0 0 0 0 0 0
0 111 324 325 291 193 56 10 19 10 493 531 494 521 504 308 241 55 21 6 0 2 3 2 3 0 0 0 0 0 0 0
118 202 380 391 345 149 53 23 18 52 463 556 498 444 439 316 226 127 21 51 32 5 10 23 5 0 0 0 1 7 0 0
307 309 311 227 365 422 176 84 30 44 189 476 408 322 573 361 179 60 43 21 5 7 6 16 15 0 0 0 1 4 0 0
656 582 449 461 570 361 594 207 296 324 656 506 421 274 211 257 57 35 44 3 4 22 4 33 8 0 0 0 6 8 0 0
814 786 585 612 916 654 691 849 359 467 655 507 453 295 240 50 7 17 47 35 38 34 38 2 40 14 1 0 1 0 0 0
793 775 746 751 926 1089 1057 929 984 668 810 626 411 325 271 168 21 13 50 66 91 33 6 0 4 17 17 0 0 0 0 0

GFSFLT2_con_mucape_075.txt.gz
CAPE
45 94 18 303 357 224 263 387 472 530 662 834 952 939 903 665 415 417 356 230 138 65 25 7 0 0 0 0 0 0 0 0
4 46 67 13 150 160 181 209 206 173 339 508 618 603 474 334 291 281 251 198 125 48 16 0 0 0 0 0 0 0 0 0
81 42 0 27 26 107 126 136 66 53 188 398 336 320 306 233 176 220 217 155 102 54 10 0 0 0 0 0 0 0 0 0
31 22 2 0 2 90 133 86 11 11 24 141 154 177 134 99 142 182 182 130 86 42 0 0 0 0 0 0 0 0 0 0
62 37 38 1 0 9 60 41 2 4 0 0 16 29 43 49 52 59 39 25 1 1 0 0 0 0 0 0 0 0 0 0
83 22 88 4 18 10 2 0 0 33 3 10 28 17 7 22 2 0 0 3 0 0 0 0 0 0 0 0 0 0 0 0
21 12 59 11 3 0 1 4 1 20 49 65 82 62 33 23 2 2 0 0 0 0 0 0 0 0 0 0 0 0 0 0
13 28 13 10 13 0 0 11 3 34 89 121 152 109 61 79 21 5 0 0 0 0 0 0 0 0 0 0 0 0 0 0
22 54 24 6 20 21 5 3 22 37 89 145 171 203 90 97 30 20 5 0 0 0 0 0 0 0 0 0 0 0 0 0
3 5 6 5 3 13 6 4 0 2 59 115 153 189 132 173 106 63 20 0 0 0 0 0 0 0 0 0 0 0 0 0
0 0 6 16 21 15 17 8 6 3 24 68 82 109 144 177 153 64 5 0 0 5 0 0 0 0 0 0 0 0 0 0
5 0 0 0 0 0 0 0 21 0 12 1 18 26 128 223 149 81 2 0 8 3 6 7 0 0 0 0 0 0 0 0
0 0 0 0 0 0 0 7 0 0 0 0 55 226 224 214 156 69 31 10 13 0 7 5 0 0 0 0 0 0 0 0
0 0 0 0 0 0 0 0 0 0 0 98 137 222 342 267 192 113 73 25 5 0 0 0 0 0 0 0 0 0 0 0
0 0 0 0 0 0 0 0 0 0 3 110 163 220 372 364 239 169 164 57 21 0 1 0 0 0 0 0 0 0 0 0
0 0 0 0 0 0 0 0 0 0 0 28 192 268 338 318 303 239 158 75 3 0 3 26 19 7 5 0 0 0 0 0
0 0 11 13 28 29 20 14 0 0 66 163 207 260 349 415 345 210 162 68 4 12 34 8 11 4 0 8 2 0 0 0
0 22 31 44 63 61 113 28 3 0 76 261 285 294 380 406 254 255 191 91 33 27 8 28 8 4 0 2 0 2 0 0
4 15 50 90 164 129 158 81 30 24 9 294 340 381 296 260 198 178 220 127 62 68 40 27 38 12 0 0 0 0 0 0
32 37 122 131 236 242 193 220 145 32 57 176 302 389 369 194 213 199 66 25 45 72 51 49 16 0 0 0 0 0 0 0